This is the latest recevied weather packets stored in our database for station/object K2CCS. If no packets are shown the sender has not sent any weather packets the latest 10 day(s).
| Time | Temp. | Humidity | Pressure | Rain* | Wind** | Luminosity | Snow |
|---|---|---|---|---|---|---|---|
| 1777994516 | 22.78° C | 53% | 1009.8 hPa | 0 mm | - | 705 W/m² | - |
| 1777994212 | 21.67° C | 55% | 1009.8 hPa | 0 mm | - | 616 W/m² | - |
| 1777993910 | 21.67° C | 56% | 1009.9 hPa | 0 mm | - | 358 W/m² | - |
| 1777993605 | 21.11° C | 56% | 1010.1 hPa | 0 mm | - | 325 W/m² | - |
| 1777993303 | 21.11° C | 56% | 1010 hPa | 0 mm | - | 639 W/m² | - |
| 1777992998 | 20.56° C | 57% | 1010.2 hPa | 0 mm | - | 439 W/m² | - |
| 1777992697 | 20° C | 57% | 1010.2 hPa | 0 mm | - | 392 W/m² | - |
| 1777992394 | 20° C | 59% | 1010.2 hPa | 0 mm | - | 379 W/m² | - |
| 1777992092 | 20° C | 58% | 1010.4 hPa | 0 mm | - | 442 W/m² | - |
| 1777991789 | 19.44° C | 61% | 1010.7 hPa | 0 mm | - | 602 W/m² | - |
| 1777991486 | 18.89° C | 61% | 1010.6 hPa | 0 mm | - | 159 W/m² | - |
| 1777991183 | 18.89° C | 62% | 1011 hPa | 0 mm | - | 117 W/m² | - |
| 1777990880 | 18.33° C | 62% | 1010.9 hPa | 0 mm | - | 288 W/m² | - |
| 1777990578 | 17.78° C | 62% | 1011 hPa | 0 mm | - | 283 W/m² | - |
| 1777989971 | 17.78° C | 64% | 1011.1 hPa | 0 mm | - | 106 W/m² | - |
| 1777989668 | 17.78° C | 64% | 1011.3 hPa | 0 mm | - | 141 W/m² | - |
| 1777989364 | 17.22° C | 63% | 1011.2 hPa | 0 mm | - | 161 W/m² | - |
| 1777989061 | 17.78° C | 64% | 1011.3 hPa | 0 mm | - | 123 W/m² | - |
| 1777988756 | 17.78° C | 65% | 1011.3 hPa | 0 mm | - | 159 W/m² | - |
| 1777988454 | 17.22° C | 68% | 1011.2 hPa | 0 mm | - | 160 W/m² | - |
| 1777988150 | 16.67° C | 68% | 1011.3 hPa | 0 mm | - | 126 W/m² | - |
| 1777987846 | 16.67° C | 70% | 1011.2 hPa | 0 mm | - | 93 W/m² | - |
| 1777987543 | 16.67° C | 69% | 1011.3 hPa | 0 mm | - | 75 W/m² | - |
| 1777987241 | 17.22° C | 67% | 1011.2 hPa | 0 mm | - | 65 W/m² | - |
| 1777986937 | 17.22° C | 66% | 1011.3 hPa | 0 mm | - | 78 W/m² | - |
* Rain latest hour (hover to see other rain measurements)
** Current wind speed in m/s (hover to see current wind gust speed)